Theta_e
315 315 315 314 312 310 309 326 311 321 323 315 318 312 312 305 314 317 315 316 315 313 313 312 312 312 315 316 317 312 317 315 311 310 312 313 313 311 313 308 308 310 309 311
314 315 315 313 311 310 319 321 316 323 321 310 311 313 311 313 313 316 315 316 319 320 315 311 313 314 315 317 317 316 317 313 308 308 310 313 311 312 312 311 311 308 306 310
313 314 314 313 311 311 318 322 311 318 319 319 313 311 311 310 316 315 317 317 320 318 316 318 314 313 314 315 316 318 315 314 312 307 308 312 309 309 310 309 306 308 309 311
313 314 314 313 312 311 319 324 317 317 311 313 313 314 314 312 313 316 318 317 318 318 314 315 314 315 315 315 313 315 316 311 312 310 309 309 309 309 309 308 309 305 309 309
313 313 314 313 312 310 325 320 319 320 320 316 314 307 314 312 313 315 315 316 315 318 316 317 314 315 316 315 316 316 316 311 312 309 309 309 307 309 309 309 309 309 309 308
313 313 313 313 312 314 322 324 325 320 309 315 314 314 315 313 315 315 316 317 317 315 314 317 319 319 317 318 317 314 313 313 310 306 308 307 304 308 308 309 311 312 309 320
312 313 313 313 313 312 320 320 320 319 314 315 315 313 313 313 315 315 315 317 317 313 317 317 318 317 316 316 314 316 313 313 312 306 308 299 309 315 313 311 315 318 319 324
312 313 314 313 313 312 321 322 320 320 317 318 313 313 313 315 315 314 314 314 314 316 316 315 312 312 312 313 312 313 314 313 308 304 303 306 307 311 312 312 312 319 320 325
312 312 313 313 312 312 321 322 322 321 317 315 315 314 315 315 315 314 314 318 318 316 319 315 308 305 309 308 310 313 311 313 309 307 301 298 309 314 316 315 306 319 322 323
312 312 313 313 312 312 315 322 322 320 315 320 318 316 316 317 316 317 316 316 316 317 314 309 307 306 308 303 304 307 308 309 305 305 303 306 313 315 317 305 310 320 321 323
311 311 312 312 312 312 314 320 322 318 317 318 318 318 317 319 319 315 316 315 315 315 311 310 310 306 309 307 309 308 307 306 305 306 303 301 316 314 309 317 320 320 321 321
311 311 311 312 312 311 312 318 322 320 317 318 321 321 323 321 319 318 319 316 316 318 315 314 316 308 311 308 303 313 306 311 310 309 310 316 319 319 320 320 321 321 320 321
310 311 311 311 311 311 311 315 317 320 317 316 316 314 320 323 322 323 316 320 318 319 319 319 316 309 313 305 306 310 312 313 313 311 315 316 318 321 321 322 321 320 320 319
310 310 310 310 311 311 311 314 319 317 316 309 315 321 319 322 322 322 321 319 320 320 320 316 313 309 315 310 311 310 314 314 312 312 316 317 318 319 320 319 320 320 321 321
309 310 310 310 311 311 312 315 320 321 314 310 315 319 320 320 319 319 318 318 318 317 314 312 311 315 313 316 313 309 314 312 309 310 319 319 319 320 320 319 320 321 320 320
309 309 310 309 310 310 314 316 320 323 321 314 308 317 319 317 319 318 318 320 321 319 315 315 318 317 315 309 307 315 316 317 318 317 321 321 321 322 322 320 319 319 318 319
308 309 309 309 310 311 311 313 316 312 321 314 309 310 318 317 318 318 318 320 320 317 318 313 316 316 314 311 307 317 318 320 320 322 321 318 318 319 320 319 318 317 317 316
308 309 309 310 310 309 312 319 312 313 315 316 309 309 312 317 313 313 320 315 316 315 316 315 312 315 315 308 315 319 319 320 319 319 321 320 322 320 318 318 316 313 312 312
308 309 310 314 313 314 319 313 312 320 317 310 310 305 306 316 316 318 315 317 310 317 311 312 313 310 307 312 318 318 319 319 319 320 320 319 317 316 315 314 313 311 310 310
308 313 315 312 318 312 316 317 315 316 316 314 308 316 310 314 313 312 313 314 312 308 312 315 308 308 316 318 320 323 321 322 321 318 317 317 315 314 313 311 311 309 309 310
316 314 314 317 313 317 316 310 307 309 306 311 309 310 312 317 310 311 317 312 313 305 309 308 308 308 315 322 322 324 324 323 322 322 320 318 317 314 312 309 308 309 311 310
304 304 308 314 315 312 307 306 310 308 306 310 307 307 317 314 320 314 314 310 311 303 313 308 305 315 321 321 321 323 323 321 320 320 317 316 314 312 309 308 308 310 311 312
309 305 307 312 311 296 300 299 303 306 312 314 313 306 313 314 317 316 312 306 306 313 307 306 311 319 320 322 322 322 322 321 319 317 316 315 312 310 309 309 309 309 311 312
304 304 292 303 302 303 305 306 310 313 316 315 314 309 311 316 312 314 306 310 310 303 301 303 313 320 321 323 323 322 320 320 318 316 315 313 311 310 310 311 311 309 309 311
303 304 294 301 307 311 313 314 313 314 318 314 312 311 314 311 310 311 308 304 301 303 304 311 318 322 323 323 323 322 321 320 318 316 314 311 310 310 311 314 314 311 309 308
303 303 301 306 305 307 309 311 312 317 317 317 315 310 307 307 309 305 303 301 300 307 312 316 323 323 324 324 324 323 322 321 318 316 314 311 311 311 313 314 315 313 310 307
300 300 305 306 308 309 311 313 313 316 314 309 311 305 304 312 305 303 308 304 308 312 316 320 325 324 325 325 325 323 322 320 318 316 313 313 314 314 314 313 315 315 313 309
Wind_Speed
20 21 21 22 21 21 5 5 3 6 4 7 3 7 3 2 3 2 5 5 8 9 9 10 7 8 7 1 6 8 7 5 6 7 5 1 2 5 10 8 8 9 10 4
21 23 22 22 21 16 6 2 5 5 5 6 7 4 5 5 5 2 5 7 2 6 9 5 4 5 3 5 5 6 7 7 9 12 11 7 4 3 0 8 8 13 10 2
23 23 22 24 24 21 5 4 6 5 6 4 5 3 4 5 4 5 3 3 6 9 9 2 8 8 5 4 3 3 2 6 9 1 6 5 4 5 2 8 9 10 9 6
23 23 24 26 26 19 5 3 3 3 8 9 6 4 1 4 3 4 4 5 6 8 6 8 6 8 10 7 6 2 5 5 1 3 4 2 4 6 6 9 11 14 14 6
22 23 24 25 28 23 4 5 4 3 3 4 7 6 5 3 3 4 6 5 6 4 7 6 7 6 5 5 6 5 6 3 1 6 4 6 10 11 10 10 10 11 14 15
21 22 22 23 26 23 4 3 2 6 5 7 7 5 1 2 3 4 3 7 9 12 10 7 8 6 6 4 3 5 4 4 5 11 4 8 14 5 6 7 7 9 10 7
21 20 22 21 20 20 5 5 5 5 4 5 3 2 3 2 3 1 5 2 4 4 4 5 5 5 5 3 3 3 5 7 7 11 4 15 7 4 3 6 2 3 3 2
20 20 19 19 19 19 5 4 5 4 2 2 5 3 1 4 6 6 7 8 5 3 5 5 5 7 6 6 1 6 6 9 9 8 11 6 8 7 6 6 5 3 3 6
19 20 20 19 19 18 7 3 4 4 7 5 3 1 1 5 5 6 5 5 2 4 2 3 5 8 4 4 6 2 6 7 10 9 11 11 7 6 3 2 8 8 6 9
18 19 20 19 19 18 10 3 7 5 5 4 4 2 3 2 2 1 4 2 3 3 4 6 6 7 2 6 8 5 5 5 11 11 11 5 6 7 5 8 7 7 6 7
16 18 19 19 18 18 10 3 5 6 4 2 2 3 2 1 2 4 6 5 5 4 5 4 4 6 5 6 2 4 6 5 6 7 7 12 6 7 7 6 5 6 5 3
15 16 17 17 16 17 15 3 3 4 6 6 4 7 7 5 6 4 2 5 3 4 2 2 0 5 3 6 7 4 5 4 7 6 7 4 3 5 5 5 8 6 4 5
14 15 16 16 15 14 11 6 6 5 4 5 5 5 5 4 6 6 5 2 3 3 5 2 2 5 4 6 7 2 5 2 4 5 6 6 8 7 7 7 8 6 6 4
14 14 15 15 14 13 10 5 4 5 4 5 6 2 3 1 4 6 4 3 3 3 2 3 5 6 2 3 4 7 5 6 5 4 6 6 5 6 7 7 6 6 5 7
14 15 15 15 14 13 10 3 4 3 6 5 2 2 2 3 6 6 5 5 4 3 4 5 6 2 4 2 3 7 7 4 6 3 11 1 12 8 5 5 5 6 7 9
14 15 15 15 14 11 6 5 4 2 3 5 3 4 3 4 6 7 6 3 1 3 3 3 1 2 5 4 6 5 5 5 2 5 7 10 12 9 7 6 7 7 7 7
15 16 16 15 10 6 5 6 5 4 4 5 4 4 5 4 7 4 4 3 1 3 1 4 3 4 4 5 8 10 7 7 9 12 12 10 4 7 7 6 5 2 5 7
16 17 17 13 4 7 6 2 8 7 5 4 4 3 5 7 6 6 2 4 4 4 1 2 6 4 4 5 6 9 11 11 10 8 6 11 9 6 5 4 4 3 6 7
18 18 10 4 5 4 4 5 8 4 5 4 3 4 5 6 4 2 5 3 5 3 4 3 3 6 6 3 10 12 13 9 11 10 9 8 6 5 4 3 5 6 7 7
17 6 5 5 3 4 6 5 5 6 5 5 5 1 4 6 7 6 5 4 3 4 3 3 6 7 5 5 7 11 10 11 11 9 7 6 5 5 5 5 6 6 6 6
3 3 1 4 2 5 4 4 5 5 5 6 4 6 4 3 8 7 3 4 4 4 6 5 4 5 9 8 12 11 11 9 8 9 8 7 7 6 5 5 4 4 5 6
3 4 5 4 5 4 5 5 4 6 4 6 6 7 3 4 2 3 4 3 3 3 5 4 4 6 10 13 15 13 11 11 11 9 10 9 8 7 6 5 5 5 4 5
2 3 3 4 4 2 7 9 5 5 6 6 7 8 5 4 4 1 4 6 3 4 4 4 3 9 11 13 13 13 11 11 11 10 10 10 9 7 6 6 6 4 5 6
3 4 3 7 6 6 5 4 2 5 2 6 6 8 4 2 5 2 5 3 4 5 5 5 7 12 14 13 12 12 12 10 10 10 10 10 8 7 5 5 5 5 5 6
5 4 6 7 4 1 1 1 3 4 2 5 5 4 4 5 4 3 3 5 5 5 3 2 8 14 14 13 12 11 10 9 9 9 10 9 8 6 5 3 3 5 4 5
4 5 5 4 5 5 5 5 4 3 3 3 3 4 5 6 3 6 6 4 4 3 3 6 10 14 13 12 11 10 9 9 9 9 9 8 7 5 3 3 1 2 5 5
5 5 5 6 4 3 4 2 4 1 5 8 5 6 7 3 6 6 4 4 3 4 4 6 11 14 14 12 10 10 9 9 9 9 9 8 6 5 4 3 2 3 3 4
Wind_Direction
345 347 345 343 343 335 263 282 182 138 215 213 234 219 232 2 287 173 219 273 170 189 182 194 192 166 50 85 169 185 218 251 168 92 109 91 352 5 284 268 199 237 309 47
349 349 346 346 346 350 304 238 110 168 252 220 204 165 248 266 275 202 192 188 196 170 169 177 206 131 77 143 197 168 176 240 170 176 173 181 232 106 326 291 286 281 275 191
353 350 349 351 348 346 256 256 151 152 219 309 292 210 204 242 214 256 224 128 154 150 153 162 163 152 128 129 122 322 205 290 308 87 326 31 178 202 225 280 280 278 233 269
356 353 354 353 351 350 263 238 72 24 181 207 228 241 274 223 199 206 212 154 211 168 151 149 143 140 140 144 141 211 276 268 263 42 72 314 312 283 250 260 276 273 280 292
359 358 356 353 352 344 263 316 313 180 138 161 212 161 207 264 177 290 145 159 118 152 112 22 156 160 187 168 178 212 204 172 247 278 223 256 268 273 266 265 270 272 272 276
359 0 360 359 359 342 356 23 226 283 141 188 215 195 231 139 190 77 57 117 122 96 74 63 71 64 77 96 209 163 237 166 238 274 182 259 258 305 294 283 274 278 270 15
357 358 1 3 4 5 308 24 291 276 130 228 205 238 221 228 156 156 87 67 127 82 146 141 133 115 108 126 97 300 210 242 284 281 260 258 53 69 287 270 310 243 281 134
357 358 360 1 1 358 305 356 314 319 279 7 160 157 172 144 146 98 80 60 58 149 192 195 179 187 188 168 296 252 260 253 264 265 258 254 215 209 199 225 137 193 159 144
354 355 358 0 1 359 306 3 318 292 303 87 344 302 286 163 133 138 96 88 58 238 243 199 232 256 322 263 177 263 254 254 266 238 268 271 65 132 159 232 247 157 172 162
350 354 355 356 357 357 324 336 353 276 295 80 314 355 2 300 260 80 142 103 155 266 213 227 243 251 353 254 263 240 224 254 242 236 244 230 112 139 173 232 71 138 171 166
346 349 352 352 354 356 341 331 2 329 310 302 314 343 313 197 254 250 103 197 200 204 237 264 186 261 175 254 290 258 253 252 224 244 245 241 142 150 241 64 127 115 109 98
339 342 347 348 351 353 336 280 17 320 260 346 317 299 294 319 4 320 166 15 54 24 260 219 166 212 185 267 245 179 240 298 343 324 36 92 100 48 101 100 117 109 106 77
334 336 342 343 345 349 351 311 329 259 267 233 229 198 136 233 246 272 287 145 47 121 356 348 329 251 284 238 236 222 178 203 258 219 121 116 126 112 94 84 91 79 53 16
328 330 335 335 337 339 335 303 341 279 292 281 116 155 177 311 221 228 314 69 135 94 239 242 251 257 208 268 6 264 41 169 183 122 135 141 145 121 116 106 72 44 26 6
321 322 327 328 329 330 298 247 261 279 301 331 340 177 65 174 168 180 194 193 174 199 197 221 229 54 225 190 270 242 184 184 229 4 135 21 133 120 118 89 59 33 0 348
316 314 316 319 320 326 273 215 168 195 288 271 242 85 142 120 144 147 153 142 154 258 271 242 154 57 261 238 242 82 150 181 31 122 119 102 114 104 72 67 36 18 357 355
311 309 310 309 301 282 272 358 26 343 287 258 246 182 131 178 158 147 145 157 118 286 239 234 238 188 235 257 252 132 143 121 120 124 126 127 129 99 70 45 26 35 18 11
310 307 307 299 256 254 248 133 225 235 270 256 264 164 181 195 184 166 185 174 190 173 279 188 230 142 233 252 130 146 143 134 130 123 81 95 109 94 72 66 29 22 18 4
308 306 297 201 221 221 79 99 141 221 293 288 231 235 157 175 160 127 169 239 213 99 231 211 227 197 219 230 160 165 160 159 143 125 112 113 109 107 84 55 40 8 18 11
304 265 218 192 88 353 179 183 202 199 192 222 259 85 182 214 175 180 156 201 219 220 136 129 233 237 120 142 167 162 163 141 148 144 144 142 117 102 89 60 36 19 7 1
227 250 331 20 114 220 218 213 224 167 219 198 231 229 183 179 201 169 245 167 162 237 127 242 199 229 159 157 151 148 145 134 101 94 98 92 107 121 107 73 38 19 15 4
348 307 280 259 217 215 229 203 175 223 227 160 202 175 227 128 280 211 178 203 190 246 139 233 237 102 139 151 149 143 136 128 117 116 117 116 116 106 93 69 36 24 14 350
220 222 239 209 162 230 219 191 194 209 176 164 171 160 167 153 223 147 194 199 195 136 210 230 36 131 153 151 147 141 131 125 125 126 125 125 120 111 97 79 47 24 17 18
235 194 235 224 187 234 205 224 137 76 183 155 183 143 193 130 183 150 201 81 180 220 227 217 134 159 156 156 152 147 146 146 141 140 140 134 136 127 117 88 54 27 24 15
237 211 230 217 258 273 212 92 201 153 143 153 155 157 222 153 160 218 132 187 227 225 230 114 118 156 158 157 158 154 154 150 151 150 151 150 147 152 136 98 46 39 22 8
248 243 256 224 240 198 187 187 170 142 178 179 250 158 197 189 197 193 199 210 221 158 158 98 139 154 159 158 158 160 150 156 152 156 153 155 164 172 136 161 14 29 12 7
224 223 235 281 317 287 118 193 126 134 217 198 192 194 170 129 207 193 195 212 143 123 117 130 148 158 157 157 155 153 156 157 156 157 161 162 170 169 203 276 33 339 10 351